Sioux City, IA

6:16 AM CST on November 17, 2019 (GMT -0600)
Sioux Gateway

Weather History for KSUX - October, 2019

Change the Weather History Date:

Wednesday, October 23, 2019

  Actual Average Record
Temperature  
Mean Temperature 39 °F 48 °F  
Max Temperature 45 °F 60 °F 83 °F (1899)
Min Temperature 33 °F 36 °F 15 °F (1895)
Degree Days  
Heating Degree Days 26 17  
Month to date heating degree days 367 300  
Since 1 July heating degree days 403 447  
Cooling Degree Days 0 0  
Month to date cooling degree days 0 8  
Year to date cooling degree days 910 869  
Moisture  
Dew Point 37 °F    
Average Humidity 85    
Maximum Humidity 96    
Minimum Humidity 70    
Precipitation  
Precipitation 0.11 in 0.05 in 1.12 in (1906)
Month to date precipitation 2.42 1.73  
Year to date precipitation 30.53 25.23  
Snow  
Snow 0.00 in 0.10 in 2.50 in (2002)
Month to date snowfall T 0.5  
Since 1 July snowfall T 0.5  
Since 1 September snowfall T 0.5  
Snow Depth 0.00 in    
Sea Level Pressure  
Sea Level Pressure 29.97 in    
Wind  
Wind Speed 7 mph ()    
Max Wind Speed 23 mph    
Max Gust Speed 30 mph    
Visibility 9.7 miles    
Events Rain    
T = Trace of Precipitation, MM = Missing Value Source: Averaged Metar Reports

Daily Weather History Graph

Daily Weather History Graph

Search for Another Location

Airport or City:

Astronomy

Oct. 23, 2019 Rise Set
Actual Time 7:47 AM CDT 6:31 PM CDT
Civil Twilight 7:18 AM CDT 7:00 PM CDT
Nautical Twilight 6:46 AM CDT 7:32 PM CDT
Astronomical Twilight 6:13 AM CDT 8:05 PM CDT
Moon 1:58 AM CDT (10/23) 4:30 PM CDT (10/23)
Length of Visible Light 11h 41m
Length of Day
10h 43m
Waning Crescent, 26% of the Moon is Illuminated
Oct 23
Waning Crescent
Oct 27
New
Nov 4
First Quarter
Nov 12
Full
Nov 19
Last Quarter

Hourly Weather History & Observations

Time (CDT) Temp. Windchill Dew Point Humidity Pressure Visibility Wind Dir Wind Speed Gust Speed Precip Events Conditions
12:52 AM 37.9 °F 34.4 °F 33.1 °F 83% 29.84 in 10.0 mi ESE 4.6 mph - N/A   Overcast
1:52 AM 37.9 °F 34.4 °F 34.0 °F 86% 29.84 in 10.0 mi ESE 4.6 mph - N/A   Overcast
2:52 AM 39.0 °F 34.8 °F 34.0 °F 82% 29.83 in 10.0 mi East 5.8 mph - N/A   Mostly Cloudy
3:52 AM 37.9 °F 32.7 °F 34.0 °F 86% 29.80 in 10.0 mi ESE 6.9 mph - N/A   Partly Cloudy
4:52 AM 39.0 °F 34.8 °F 35.1 °F 86% 29.80 in 10.0 mi ESE 5.8 mph - N/A   Overcast
5:52 AM 41.0 °F - 35.1 °F 79% 29.81 in 10.0 mi Calm Calm - N/A   Overcast
6:52 AM 41.0 °F 37.1 °F 36.0 °F 82% 29.82 in 10.0 mi East 5.8 mph - 0.00 in   Overcast
7:52 AM 41.0 °F 36.4 °F 36.0 °F 82% 29.81 in 10.0 mi ESE 6.9 mph - N/A   Overcast
8:52 AM 42.1 °F 38.4 °F 37.9 °F 85% 29.80 in 10.0 mi East 5.8 mph - N/A   Mostly Cloudy
9:52 AM 43.0 °F 38.2 °F 39.0 °F 86% 29.86 in 4.0 mi NW 8.1 mph - 0.02 in Rain Light Rain
10:52 AM 42.1 °F 37.1 °F 41.0 °F 96% 29.88 in 6.0 mi North 8.1 mph - 0.08 in Rain Light Rain
11:52 AM 43.0 °F 38.2 °F 39.9 °F 89% 29.90 in 10.0 mi NNE 8.1 mph - 0.00 in   Overcast
12:05 PM 43.0 °F 38.8 °F 39.9 °F 89% 29.88 in 10.0 mi NNE 6.9 mph - 0.00 in Rain Light Rain
12:52 PM 44.1 °F 39.5 °F 41.0 °F 89% 29.91 in 10.0 mi ENE 8.1 mph - 0.01 in   Overcast
1:13 PM 45.0 °F 40.1 °F 41.0 °F 86% 29.89 in 10.0 mi ENE 9.2 mph - N/A   Overcast
1:23 PM 45.0 °F 40.6 °F 41.0 °F 86% 29.89 in 10.0 mi NNE 8.1 mph - N/A   Overcast
1:36 PM 45.0 °F 40.1 °F 41.0 °F 86% 29.89 in 10.0 mi NNE 9.2 mph - N/A   Overcast
1:52 PM 44.1 °F 38.6 °F 39.9 °F 85% 29.92 in 10.0 mi NNE 10.4 mph - N/A   Overcast
2:03 PM 44.1 °F 38.1 °F 39.0 °F 82% 29.91 in 10.0 mi NNE 11.5 mph - N/A   Overcast
2:52 PM 44.1 °F 39.5 °F 39.0 °F 82% 29.95 in 10.0 mi NE 8.1 mph - N/A   Overcast
3:52 PM 43.0 °F 37.2 °F 37.9 °F 82% 30.00 in 10.0 mi North 10.4 mph - N/A   Overcast
4:52 PM 43.0 °F 37.7 °F 37.9 °F 82% 30.04 in 10.0 mi NNE 9.2 mph - N/A   Overcast
5:31 PM 42.1 °F 36.1 °F 37.0 °F 82% 30.03 in 10.0 mi NNE 10.4 mph - N/A   Overcast
5:52 PM 42.1 °F 36.1 °F 37.9 °F 85% 30.07 in 10.0 mi NNE 10.4 mph - N/A   Overcast
6:32 PM 42.1 °F 36.1 °F 37.0 °F 82% 30.07 in 10.0 mi North 10.4 mph - N/A   Overcast
6:52 PM 42.1 °F 35.7 °F 36.0 °F 79% 30.12 in 10.0 mi North 11.5 mph - N/A   Overcast
7:52 PM 41.0 °F 34.7 °F 37.0 °F 86% 30.18 in 10.0 mi NNW 10.4 mph - 0.00 in   Overcast
8:52 PM 39.0 °F 29.9 °F 36.0 °F 89% 30.21 in 10.0 mi NNW 17.3 mph - N/A   Overcast
8:59 PM 39.0 °F 29.0 °F 36.0 °F 89% 30.19 in 10.0 mi NNW 20.7 mph - N/A   Overcast
9:52 PM 37.9 °F 28.5 °F 34.0 °F 86% 30.22 in 10.0 mi NNW 17.3 mph 26.5 mph N/A   Overcast
10:52 PM 37.0 °F 29.3 °F 33.1 °F 86% 30.27 in 10.0 mi NW 11.5 mph - N/A   Mostly Cloudy
11:52 PM 37.0 °F 29.3 °F 28.9 °F 73% 30.32 in 10.0 mi WNW 11.5 mph 21.9 mph N/A   Overcast